User: anonymous   Login
Location: Cluny
(50.9333°N, 112.8167°W)
Time: 06:21:53
(UTC-07:00)
Language:

Cosmos 1743 Rocket - Orbit

View from above orbital plane
View from above orbital plane
View from above satellite
View from above satellite

Ground track
Ground track

The orbit data is extracted from the following two-line orbital elements,

1 16720U 86034B   14331.48305134  .00000491  00000-0  57605-4 0  6209
2 16720 082.5554 030.8845 0018867 298.8982 143.0046 14.82885359541013
Epoch (UTC): 27 November 2014 11:35:35
Eccentricity: 0.0018867
inclination: 82.5554°
perigee height: 607 km
apogee height: 633 km
right ascension of ascending node: 30.8845°
argument of perigee: 298.8982°
revolutions per day: 14.82885359
mean anomaly at epoch: 143.0046°
orbit number at epoch: 54101

The dashed part of the orbit path shows where the satellite is in the earth's shadow,  

DLR